[[{"header":{"parameterUnit":"m.s-1","parameterCategory":1,"la1":30.2991,"la2":30.254,"lo1":-89.0895,"lo2":-89.0444,"dy":0.0017,"dx":0.0017,"nx":28,"ny":28,"refTime":"2024-07-29T21:00:00:Z","depth":0,"parameterNumber":2,"parameterNumberName":"U-component_of_WINDS"},"data":[0,0,0,0,0,0,0,0,0,0,0,0,0,0,0,0,0,0,0,0,0,0,0,0,0,0,0,0,0,0,0,0,0,0,0,0,0,0,0,0,0,0,0,0,0,0,0,0,0,0,0,0,0,0,0,0,0,0,2.9915,2.9916,0,3.009,3.0092,3.0094,3.0102,3.01,3.0098,3.0096,3.0278,3.0284,3.0291,0,0,0,0,0,0,0,0,0,0,0,0,0,2.9588,2.9594,2.9914,2.9917,2.9919,3.009,3.0092,3.0094,3.0102,3.01,3.0097,3.0095,3.0275,3.0283,3.0291,0,0,0,0,0,0,0,0,0,0,0,0,0,2.9743,2.9596,2.9914,2.9943,2.9948,3.0089,3.0092,3.0095,3.0103,3.01,3.0097,3.0094,3.0273,3.0283,3.0293,3.0417,0,0,3.0324,3.0328,0,0,0,0,0,0,0,0,2.9734,2.9755,2.9937,2.9942,2.9947,3.0071,3.0044,3.0203,3.0104,3.0044,3.0096,3.0092,3.0211,3.0226,3.0266,3.0426,3.0434,3.0324,3.0331,3.0335,3.0338,0,0,0,0,0,0,0,2.9724,2.9748,2.9984,2.9939,2.9946,2.9948,2.9967,3.0074,3.0143,3.0049,3.005,3.007,3.0214,3.0256,3.027,3.0436,3.0324,3.0333,3.0339,3.0343,3.0707,3.071,0,0,0,0,0,0,2.9707,2.9739,2.9978,2.9989,2.9831,2.9957,2.9977,3.0034,3.0142,3.0155,3.0073,3.007,3.0241,3.0259,3.0277,3.043,3.0335,3.0344,3.035,3.0703,3.0708,3.0711,0,0,0,0,0,0,2.97,2.9728,2.9971,2.9864,2.9895,2.9965,3.0029,3.0039,3.0082,3.016,3.0173,3.0104,3.0239,3.0263,3.0382,3.0436,3.0349,3.0358,3.0699,3.0705,3.0709,3.0737,0,0,0,0,0,0,2.9691,2.9726,2.9773,2.9865,2.9901,3.0073,3.0032,3.0045,3.0099,3.0097,3.0192,3.0205,3.0238,3.0367,3.0392,3.0449,3.0366,3.0695,3.0701,3.0708,3.0731,3.0742,3.0752,0,0,0,0,0,2.9679,2.9775,2.9776,2.9805,2.9962,3.0076,3.0097,3.0132,3.0104,3.0152,3.0202,3.0202,3.0426,3.0379,3.0408,3.0468,3.0691,3.07,3.0707,3.0727,3.074,3.0751,0,0,0,0,0,0,2.9688,2.9787,2.979,2.9918,2.9988,3.0077,3.014,3.0145,3.0226,3.0221,3.0262,3.0284,3.0402,3.0447,3.0393,3.0594,3.0556,3.057,3.056,3.0574,3.0584,3.0571,3.0375,0,0,0,0,0,2.9705,2.9789,2.9871,2.9976,3.0011,3.0069,3.0121,3.0142,3.0217,3.0247,3.0306,3.0379,3.0466,3.0522,3.0607,3.0738,3.0759,3.0793,3.0803,3.0811,3.0823,3.0896,3.0912,3.0738,3.0738,3.0738,0,0,2.9741,2.9805,2.9856,2.998,3.0037,3.0123,3.0095,3.0187,3.0252,3.0261,3.0377,3.0423,3.0508,3.0633,3.0691,3.0674,3.0876,3.0822,3.0827,3.0835,3.0905,3.0922,3.0936,3.0743,3.0742,3.0741,0,0,2.985,2.9907,3.0001,3.0059,3.0145,3.0183,3.0206,3.0294,3.0324,3.0441,3.045,3.0528,3.0677,3.0737,3.0786,3.0918,3.0921,3.0944,3.0998,3.1068,3.1082,3.1094,3.1141,3.1157,3.0956,3.0956,3.0956,0,2.9884,3.0014,3.0049,3.0141,3.0195,3.0207,3.0303,3.0357,3.0467,3.0504,3.0483,3.067,3.0728,3.0868,3.0899,3.094,3.0967,3.0934,3.1077,3.1089,3.1101,3.1147,3.1164,3.0958,3.0958,3.0958,3.0957,0,3.0051,3.0141,3.0206,3.0311,3.0373,3.0466,3.0516,3.0574,3.059,3.063,3.0749,3.0819,3.0917,3.0952,3.0969,3.1094,3.1081,3.1068,3.103,3.112,3.1163,3.118,3.0961,3.0961,3.096,3.0959,0,0,3.0172,3.0294,3.0318,3.0365,3.0461,3.0532,3.0626,3.0721,3.077,3.0846,3.0926,3.1051,3.104,3.1096,3.112,3.1181,3.1281,3.1161,3.1163,3.1181,3.1423,3.1432,3.1452,3.1283,3.1286,3.1289,3.1416,0,3.0291,3.0458,3.0492,3.0637,3.072,3.0732,3.0814,3.0882,3.0922,3.0999,3.1044,3.1132,3.111,3.1144,3.1206,3.1255,3.133,3.1247,3.1358,3.1362,3.1336,3.1474,3.1484,3.1601,3.1433,3.1436,3.1438,0,3.0454,3.0532,3.0684,3.0769,3.0805,3.0878,3.0968,3.1042,3.1119,3.1144,3.1207,3.1223,3.1322,3.1279,3.1416,3.1358,3.1406,3.1437,3.1443,3.1455,3.1405,3.149,3.1639,3.1656,3.1465,3.1463,3.1461,0,3.0526,3.067,3.078,3.082,3.0921,3.0972,3.1017,3.1091,3.1146,3.1225,3.1262,3.1351,3.14,3.147,3.151,3.1475,3.1644,3.1604,3.1667,3.1667,3.1703,3.17,3.1861,3.1733,3.1733,3.1733,3.1732,0,3.0656,3.0749,3.0813,3.0881,3.0985,3.1024,3.1126,3.1171,3.1237,3.1313,3.1329,3.1401,3.145,3.1529,3.1562,3.167,3.1692,3.1715,3.1723,3.1714,3.1711,3.1746,3.1739,3.1737,3.1736,3.1735,3.1734,0,3.0755,3.0802,3.0922,3.1008,3.1032,3.1105,3.1179,3.1245,3.1285,3.1382,3.1407,3.147,3.1563,3.161,3.1727,3.1749,3.1871,3.1874,3.1844,3.1848,3.1908,3.1902,3.2098,3.2125,3.1979,3.198,3.1981,0,3.0835,3.0907,3.1,3.1052,3.1098,3.1182,3.1238,3.1278,3.1336,3.1429,3.1484,3.1578,3.1656,3.1805,3.1862,3.1951,3.1956,3.2018,3.197,3.1958,3.1957,3.1952,3.196,3.2027,3.2028,3.203,3.2031,0,3.0973,3.0992,3.1071,3.1159,3.1225,3.1297,3.1367,3.1409,3.1461,3.1525,3.1621,3.1681,3.1799,3.1893,3.1986,3.2033,3.2041,3.2045,3.2065,3.2057,3.2037,3.2048,3.1868,3.2041,3.204,3.2039,3.2038,3.2038,3.1065,3.1129,3.1204,3.1292,3.1349,3.1414,3.1481,3.1528,3.1608,3.1707,3.1727,3.1828,3.1903,3.2029,3.2079,3.2159,3.2146,3.2174,3.2181,3.2187,3.219,3.2024,3.2176,3.2176,3.2176,3.2176,3.2176,0,3.1203,3.1252,3.1332,3.143,3.1499,3.1499,3.1577,3.1635,3.1724,3.1793,3.1869,3.1978,3.2069,3.2132,3.2224,3.2276,3.2282,3.2299,3.2296,3.2306,3.2197,3.2171,3.2293,3.2293,3.2292,3.2292,3.2292,3.2292,3.1283,3.1391,3.1419,3.1556,3.1604,3.1703,3.1747,3.1807,3.1863,3.1984,3.2059,3.2099,3.2167,3.2263,3.2347,3.2363,3.2396,3.2413,3.243,3.2326,3.2314,3.2302,3.2278,3.242,3.242,3.2532,3.2533,3.2534]},{"header":{"parameterUnit":"m.s-1","parameterCategory":1,"la1":30.2991,"la2":30.254,"lo1":-89.0895,"lo2":-89.0444,"dy":0.0017,"dx":0.0017,"nx":28,"ny":28,"refTime":"2024-07-29T21:00:00:Z","depth":0,"parameterNumber":3,"parameterNumberName":"V-component_of_WINDS"},"data":[0,0,0,0,0,0,0,0,0,0,0,0,0,0,0,0,0,0,0,0,0,0,0,0,0,0,0,0,0,0,0,0,0,0,0,0,0,0,0,0,0,0,0,0,0,0,0,0,0,0,0,0,0,0,0,0,0,0,4.0824,4.0826,0,4.0974,4.0976,4.0978,4.0963,4.0961,4.0959,4.0956,4.1105,4.1111,4.1117,0,0,0,0,0,0,0,0,0,0,0,0,0,4.0521,4.0527,4.0824,4.0826,4.0828,4.0974,4.0976,4.0978,4.0964,4.0961,4.0958,4.0955,4.1103,4.1111,4.1118,0,0,0,0,0,0,0,0,0,0,0,0,0,4.066,4.0528,4.0824,4.0839,4.0841,4.0974,4.0976,4.0979,4.0964,4.0961,4.0957,4.0954,4.1101,4.111,4.1119,4.1245,0,0,4.1147,4.1151,0,0,0,0,0,0,0,0,4.0652,4.0671,4.0835,4.0838,4.0841,4.0947,4.0924,4.1068,4.0965,4.0917,4.0956,4.0952,4.1055,4.1068,4.1103,4.1252,4.1258,4.1148,4.1153,4.1157,4.116,0,0,0,0,0,0,0,4.0642,4.0664,4.0883,4.0837,4.0841,4.0836,4.0852,4.0951,4.1004,4.0921,4.0921,4.0939,4.1056,4.1094,4.1107,4.126,4.1147,4.1156,4.1161,4.1165,4.1519,4.1523,0,0,0,0,0,0,4.063,4.0656,4.0879,4.0888,4.0736,4.0844,4.0862,4.0916,4.1003,4.1013,4.0942,4.0938,4.1081,4.1096,4.1112,4.1265,4.1157,4.1166,4.1171,4.1515,4.152,4.1524,0,0,0,0,0,0,4.0623,4.065,4.0873,4.0772,4.08,4.0853,4.0914,4.0921,4.0959,4.1018,4.1027,4.0972,4.1078,4.1099,4.1212,4.127,4.117,4.1178,4.151,4.1516,4.1522,4.1572,0,0,0,0,0,0,4.0615,4.0648,4.0697,4.0773,4.0806,4.0972,4.0918,4.0926,4.0976,4.0972,4.1048,4.1058,4.1077,4.1198,4.1221,4.1281,4.1185,4.1505,4.1513,4.152,4.1566,4.1579,4.1591,0,0,0,0,0,4.0604,4.0705,4.07,4.0727,4.0869,4.0975,4.0994,4.1016,4.0981,4.103,4.1068,4.1055,4.126,4.121,4.1236,4.1299,4.1502,4.1511,4.1519,4.156,4.1577,4.159,0,0,0,0,0,0,4.0632,4.0715,4.0711,4.0839,4.0901,4.0973,4.1036,4.1032,4.1104,4.1097,4.1119,4.1137,4.1251,4.1286,4.1229,4.1425,4.1376,4.139,4.1398,4.1414,4.1426,4.1416,4.1193,0,0,0,0,0,4.0654,4.0735,4.0802,4.0909,4.094,4.0983,4.103,4.1042,4.1105,4.1131,4.1177,4.1238,4.1316,4.1367,4.1442,4.157,4.1586,4.1626,4.1639,4.1649,4.1661,4.1731,4.1749,4.1553,4.1553,4.1552,0,0,4.0699,4.0754,4.0803,4.0916,4.0965,4.1047,4.1005,4.1093,4.1154,4.1144,4.1254,4.129,4.1359,4.1481,4.1536,4.1513,4.1718,4.166,4.1667,4.1674,4.1742,4.176,4.1777,4.1559,4.1558,4.1557,0,0,4.0822,4.0872,4.0967,4.1017,4.1092,4.112,4.1143,4.1216,4.124,4.1351,4.1345,4.1416,4.155,4.16,4.1643,4.1785,4.1776,4.1808,4.1874,4.1942,4.1957,4.1971,4.2022,4.204,4.182,4.182,4.182,0,4.0868,4.0993,4.1016,4.1106,4.1155,4.1151,4.1246,4.1293,4.1388,4.1421,4.1395,4.1563,4.1609,4.1742,4.1777,4.1812,4.1837,4.18,4.1954,4.1968,4.1981,4.2029,4.2048,4.1824,4.1823,4.1823,4.1823,0,4.1046,4.1132,4.1199,4.1293,4.135,4.1442,4.1477,4.1531,4.1537,4.1567,4.168,4.1736,4.1822,4.1854,4.186,4.1988,4.1971,4.1949,4.19,4.2003,4.2049,4.2067,4.1829,4.1828,4.1827,4.1826,0,0,4.1192,4.1297,4.1322,4.1364,4.1446,4.1513,4.1604,4.169,4.1736,4.1801,4.1877,4.1991,4.1971,4.2019,4.2031,4.2091,4.2199,4.2061,4.2063,4.2085,4.2342,4.2359,4.238,4.2193,4.2197,4.22,4.2337,0,4.1324,4.1488,4.151,4.1654,4.1734,4.1731,4.181,4.1868,4.1898,4.1969,4.2001,4.2082,4.2049,4.2078,4.2137,4.2174,4.2251,4.2164,4.2264,4.2267,4.2247,4.2404,4.2423,4.2549,4.2355,4.2358,4.236,0,4.1501,4.1573,4.1725,4.1796,4.1831,4.1902,4.1982,4.205,4.2115,4.2133,4.2187,4.2192,4.2284,4.2231,4.2358,4.2298,4.234,4.2364,4.2369,4.238,4.232,4.2419,4.259,4.2609,4.2388,4.2386,4.2384,0,4.1592,4.1727,4.1836,4.1872,4.1958,4.2008,4.2046,4.2108,4.2158,4.2227,4.2259,4.2338,4.2381,4.244,4.2465,4.2424,4.2591,4.254,4.2607,4.2607,4.2643,4.264,4.2823,4.2669,4.2669,4.2668,4.2668,0,4.1738,4.1831,4.1878,4.1945,4.2049,4.2073,4.2175,4.221,4.2266,4.2338,4.2339,4.2406,4.2435,4.2506,4.2526,4.2628,4.2647,4.2663,4.2667,4.2663,4.2661,4.2691,4.2683,4.2673,4.2672,4.2671,4.267,0,4.1858,4.1894,4.2012,4.2084,4.2104,4.2177,4.2238,4.2302,4.2331,4.2423,4.2446,4.2491,4.2575,4.2606,4.2708,4.2721,4.2839,4.2836,4.2818,4.2819,4.2885,4.2878,4.3093,4.3122,4.2949,4.2951,4.2952,0,4.1949,4.2021,4.2101,4.2151,4.2191,4.227,4.2321,4.2347,4.24,4.248,4.2534,4.2618,4.2687,4.2821,4.2862,4.294,4.2939,4.3008,4.295,4.2944,4.294,4.2935,4.2942,4.3019,4.3021,4.3023,4.3024,0,4.2107,4.2121,4.2196,4.2277,4.2339,4.2403,4.2466,4.2506,4.254,4.26,4.2687,4.2741,4.2845,4.2928,4.3008,4.3045,4.304,4.3042,4.3061,4.3059,4.3045,4.3054,4.2848,4.3037,4.3036,4.3035,4.3034,4.3033,4.2216,4.2279,4.2346,4.2429,4.2479,4.2537,4.2601,4.2639,4.2713,4.2801,4.2811,4.2905,4.2967,4.3073,4.3114,4.3186,4.3167,4.3195,4.3202,4.3209,4.3214,4.3034,4.32,4.32,4.32,4.3199,4.3199,0,4.2373,4.2416,4.2492,4.2581,4.2646,4.2637,4.2706,4.276,4.2843,4.2902,4.297,4.307,4.3151,4.3198,4.3278,4.3327,4.3327,4.3347,4.3344,4.3352,4.3227,4.3202,4.3346,4.3346,4.3346,4.3346,4.3346,4.3346,4.2463,4.2571,4.2592,4.2724,4.2765,4.2859,4.2898,4.2952,4.2999,4.3111,4.3179,4.321,4.3264,4.3348,4.3421,4.3433,4.3462,4.3485,4.3494,4.3376,4.3361,4.3347,4.3324,4.3491,4.3491,4.3614,4.3615,4.3616]}]]